Location: Unspecified
(54.1780°N, 0.0000°E)
Time: 20:03:41
(UTC+00:00)

Altair - Pass Details

Date: 20 June 2019
Orbit: 1501 x 1683 km, 47.2° (Epoch: 21 August)

Event Time Altitude Azimuth Distance (km) Brightness Sun altitude
Rises 01:53:00 0° 281° (W) 4,848 10.0 -8.8°
Reaches altitude 10° 01:56:20 10° 274° (W) 3,882 9.4 -8.5°
Maximum altitude 02:05:17 40° 210° (SSW) 2,309 8.0 -7.9°
Drops below altitude 10° 02:14:23 10° 146° (SSE) 3,940 9.4 -7.3°
Sets 02:17:48 0° 140° (SE) 4,926 10.0 -7.0°
